sat.trackr.live / text

‹ back to catalog

THEOS-2 (T2V)

NORAD 58016 · 2023-155A

PAYLOAD ACTIVE UNKNOWN

§ Identity

Operator
Country
THAI
Launch date
2023-10-09
Launch site
FRGUI
Launch vehicle
Mass (kg)
RCS (m²)

External: N2YO · Heavens-Above · Gunter

§ Orbital elements

Epoch: 2026-09-21T22:53:06.988704Z

Period
97.18 min
Inclination
97.9116°
Eccentricity
0.0001459
Mean motion
14.81729081 rev/d
Perigee alt
622.8 km
Apogee alt
624.9 km
Semi-major
7,002.0 km
B*
5.5072e-5
RAAN
334.4809°
Arg perigee
86.0300°
Mean anomaly
274.1079°
Rev number
15,975

§ Raw data

THEOS-2 (T2V)1 58016U 23155A   26264.95355311  .00000382  00000+0  55072-4 0  99932 58016  97.9116 334.4809 0001459  86.0300 274.1079 14.81729081159750

JSON: /api/v1/satellites/58016 · /tle

For live sub-satellite position, see the globe view (requires WebGL).

§ Visibility from observer

Set your observer location to see the next 7 days of passes ≥ 10°. The values pass through the URL so the page stays shareable.

No JS? Fill the form by hand. The geolocation button needs JavaScript.

§ Radio — SatNOGS DB

ModeDescriptionDownlinkUplink
FM Mode S 2.244 GHz

1 transmitter · refreshed weekly from db.satnogs.org